Regional Weather Roundup
Issued by NWS San Diego, CA

Current Version | Previous Version | Text Only | Print | Product List | Glossary On
Versions: 1 2 3 4 5 6 7 8 9 10 11 12 13 14 15 16 17 18 19 20 21 22 23 24 25 26 27 28 29 30 31 32 33 34 35 36 37 38 39 40 41 42 43 44 45 46 47 48 49 50
166
ASUS46 KSGX 280211
RWRSGX

SAN DIEGO HOURLY WEATHER ROUNDUP
NATIONAL WEATHER SERVICE SAN DIEGO CA
700 PM PDT FRI MAY 27 2016

NOTE: "FAIR" INDICATES FEW OR NO CLOUDS BELOW 12,000 FEET WITH NO
SIGNIFICANT WEATHER AND/OR OBSTRUCTIONS TO VISIBILITY.

CAZ042-043-060-061-PZZ750-775-280300-

GREATER SAN DIEGO AREA

CITY           SKY/WX    TMP DP  RH WIND       PRES   REMARKS
LINDBERGH FLD  CLOUDY    64  54  69 SW5       29.89F
POINT LOMA       N/A     62  53  72 W2          N/A
NATIONAL CITY    N/A     64  57  77 CALM      29.89S
CHULA VISTA      N/A     63  57  82 W3        29.81S
IMPERIAL BEACH CLOUDY    64  54  69 VRB5      29.89S
BROWN FIELD    CLOUDY    61  54  77 W5        29.88S
MIRAMAR MCAS   PTCLDY    66  54  65 W3        29.88S
MONTGOMERY FLD CLOUDY    64  54  69 SW5       29.88S

$$

NORTH SAN DIEGO COUNTY

CITY           SKY/WX    TMP DP  RH WIND       PRES   REMARKS
CAMP PENDLETON MOCLDY    63  56  78 SW8       29.87R
OCEANSIDE AP   CLOUDY    64  54  69 W7        29.87R
OCEANSIDE HBR    N/A     63  58  83 SW7       29.90R
VISTA            N/A     63  57  79 SW3       29.86R
CARLSBAD       CLOUDY    63  56  78 SW7       29.87S
DEL MAR          N/A     63  57  81 CALM      29.91S
LA JOLLA SCRIP   N/A     62  57  83 W2        29.88S
FALLBROOK        N/A     65  59  81 SW6       29.85S
ESCONDIDO        N/A     65  56  72 SW8       29.89R
POWAY            N/A     65  56  73 CALM      29.88S

$$

EAST SAN DIEGO COUNTY

CITY           SKY/WX    TMP DP  RH WIND       PRES   REMARKS
RAMONA         CLEAR     63  53  70 W8        29.88R
SANTEE LAKES     N/A     65  57  75 CALM      29.86S
LA MESA          N/A     64  55  75 CALM      29.81R
DESCANSO N       N/A     62  54  74 W3        29.74S
MT. LAGUNA OBS   N/A     57  38  50 W5        29.59S
CAMPO            N/A     66  53  63 S10       29.85R

$$

ORANGE COUNTY AND THE LOS ANGELES BASIN

CITY           SKY/WX    TMP DP  RH WIND       PRES   REMARKS
JOHN WAYNE AP  PTCLDY    65  56  72 S8        29.86R
LAKE FOREST FR   N/A     66  53  64 CALM      29.75R
HUNTINGTON BCH   N/A     64  59  83 W8        29.88R
LOS ALAMITOS   PTCLDY    67  56  69 SW10      29.85R
FULLERTON      CLEAR     69  55  60 S9        29.84R
LONG BEACH     CLEAR     67  56  67 NW12      29.85R
L.A. AP        PTSUNNY   61  55  81 SW13      29.86R
L.A. DOWNTOWN  CLEAR     66  56  70 W6        29.85R

$$

THE INLAND EMPIRE

CITY           SKY/WX    TMP DP  RH WIND       PRES   REMARKS
CORONA         CLEAR     70  56  61 W16G23    29.82R
CHINO          CLEAR     71  54  54 W18       29.84R
ONTARIO        PTCLDY    71  54  54 SW15G21   29.82R
SAN BERNARDINO CLEAR     77  50  38 SW14      29.83R
RIVERSIDE AP   CLEAR     72  52  49 W14       29.82R
MORENO VALLEY    N/A     75  55  49 N1        27.95S
MARCH ARB      CLEAR     73  51  47 NW13      29.83R
HORSETHIEF CYN   N/A     76  47  34 NE2       29.83R
PERRIS           N/A     76  49  38 NW3       29.79R
HEMET EAST       N/A     73  49  41 SW5       29.72R
FRENCH VALLEY  FAIR      64  54  68 SW13G20   29.86R
TEMECULA         N/A     66  57  73 W6        29.79R

$$

SAN BERNARDINO AND RIVERSIDE COUNTY MOUNTAINS

CITY           SKY/WX    TMP DP  RH WIND       PRES   REMARKS
BIG BEAR AP    CLEAR     55  36  47 W5        30.04R
PINE COVE        N/A     58  49  72 W2        29.82F

$$

SOUTHERN DESERT INCLUDING THE COACHELLA VALLEY

CITY           SKY/WX    TMP DP  RH WIND       PRES   REMARKS
PALM SPRINGS   PTCLDY    91  43  18 NW21      29.70R
THOUSAND PALMS   N/A     91  43  18 N13       29.67R
PALM DESERT      N/A     93  42  17 CALM      31.16S
THERMAL        CLEAR     91  33  12 SE8       29.65R
BLYTHE         CLEAR     91  40  16 S14       29.69R
IMPERIAL AP    CLEAR     93  33  12 SE8       29.67S
EL CENTRO NAS  CLEAR     92  32  12 SE6       29.69S
YUMA AZ        CLEAR     90  40  17 W6        29.71R
MEXICALI       CLEAR     90  37  15 SE8       29.70S

$$

UPPER DESERT

CITY           SKY/WX    TMP DP  RH WIND       PRES   REMARKS
VICTORVILLE AP PTCLDY    81  30  16 SW12G18   29.83R
HESPERIA         N/A     73  41  31 W7        29.88R
PALMDALE       CLEAR     77  40  26 SW20      29.83R
LANCASTER      SUNNY     77  43  29 W21       29.83R
EDWARDS AFB    PTCLDY    81  41  23 SW26      29.78R
DAGGETT        CLEAR     88  29  12 NW6       29.74S
29 PALMS N     PTCLDY    86  25  11 CALM      29.82S
NEEDLES        CLEAR     93  30  10 SW12G21   29.68S

$$

REGIONAL REPORTS

CITY           SKY/WX    TMP DP  RH WIND       PRES   REMARKS
SANTA BARBARA  SUNNY     62  53  72 SW7       29.84S
SANDBERG       SUNNY     68  25  19 S9        29.97S
LAS VEGAS NV   PTCLDY    88  25  10 SW5       29.70S
PHOENIX AZ     CLEAR     89  28  11 SW9       29.71S
TIJUANA        MOCLDY    63  52  67 NW9       29.90S
ENSENADA NW      N/A     61  32  33 W6        29.86S

$$

OFFSHORE ISLANDS

CITY           SKY/WX    TMP DP  RH WIND       PRES   REMARKS
CATALINA ARPT  FOG       55  52  89 SW8       29.89R VSB 1/2
SAN NICOLAS IS SUNNY    N/A N/A N/A W21       29.88R

$$

MARINE AND OFFSHORE BUOY REPORTS

STATION/POSITION SKY/WX   TEMP    WIND        PRES    SWELL
                          AIR SEA DIR/SP/G            HT/PER/DIR
                          (F)     (DEG/KT/KT) (MB)    (FT/S/D)
TANNER BANKS               58 61  310/ 19/ 23 1011.6F   5/330/10
S CLEMENTE BASIN           60 63  280/  8/ 12 1011.6S   5/290/ 8
SAN NICOLAS IS.               59                N/A     3/320/11
SO. S. ROSA ISLA           56 57  300/ 19/ 21 1011.5F   7/310/11
W. S. BARBARA CH           55 53  310/ 17/ 23 1010.7F   5/320/11
M. S. BARBARA CH           57 60  260/ 14/ 17 1011.0F
S. MONICA BASIN            59 63  260/ 10/ 12 1011.2R   2/280/ 8
S PEDRO CHANNEL               65                N/A
OCEANSIDE OFFSHR              65                N/A     2/200/15
LA JOLLA 1                        260/  4/  6 1011.6S
SAN DIEGO BAY                                 1012.0S
POINT LOMA SOUTH              66                N/A     2/180/17

$$





USA.gov is the U.S. government's official web portal to all federal, state and local government web resources and services.